Location: Hrubieszów
(50.8077°N, 23.8873°E)
Time: 14:01:57
(UTC+02:00)

ISS - Visible Passes

Search period start: 22 October 2018 00:00
Search period end: 31 October 2018 23:00
Orbit: 402 x 408 km, 51.6° (Epoch: 22 October)

Date Brightness Start Highest point End Pass type
(mag) Time Alt. Az. Time Alt. Az. Time Alt. Az.
25 Oct -0.3 06:26:04 10° SSE 06:26:47 11° SE 06:27:30 10° ESE visible
27 Oct -1.2 06:16:24 10° SSW 06:18:52 20° SE 06:21:21 10° E visible
28 Oct -0.8 04:25:32 10° SSE 04:27:04 13° SE 04:28:36 10° ESE visible
29 Oct -2.3 05:08:00 10° SW 05:11:02 35° SSE 05:14:04 10° E visible
30 Oct -1.7 04:17:23 15° S 04:19:07 23° SE 04:21:48 10° E visible
31 Oct -1.0 03:27:49 15° SE 03:27:49 15° SE 03:29:15 10° ESE visible
31 Oct -3.4 05:00:31 14° WSW 05:03:15 58° SSE 05:06:30 10° ENE visible
